South Bend, IN

3:28 AM EDT on May 24, 2017 (GMT -0400)
South Bend Regional

Weather History for KSBN - May, 2013

Change the Weather History Date:

Saturday, May 18, 2013

  Actual Average Record
Temperature  
Mean Temperature 71 °F 60 °F  
Max Temperature 81 °F 71 °F 91 °F (1962)
Min Temperature 60 °F 49 °F 30 °F (1925)
Degree Days  
Heating Degree Days 0 7  
Month to date heating degree days 88 158  
Since 1 July heating degree days 6043 6189  
Cooling Degree Days 6 2  
Month to date cooling degree days 25 18  
Year to date cooling degree days 30 28  
Growing Degree Days 20 (Base 50)    
Moisture  
Dew Point 49 °F    
Average Humidity 55    
Maximum Humidity 68    
Minimum Humidity 42    
Precipitation  
Precipitation 0.00 in 0.12 in 1.30 in (2000)
Month to date precipitation 0.26 2.14  
Year to date precipitation 14.31 12.03  
Snow  
Snow 0.00 in 0.00 in 0.00 in (2002)
Month to date snowfall 0.0 0.0  
Since 1 July snowfall 59.9 66.6  
Snow Depth 0.00 in    
Sea Level Pressure  
Sea Level Pressure 30.04 in    
Wind  
Wind Speed 8 mph (SE)    
Max Wind Speed 16 mph    
Max Gust Speed 21 mph    
Visibility 10 miles    
Events      
T = Trace of Precipitation, MM = Missing Value Source: NWS Daily Summary

Daily Weather History Graph

Daily Weather History Graph

Search for Another Location

Airport or City:

Trip Planner

Search our weather history database for the weather conditions in past years. The results will help you decide how hot, cold, wet, or windy it might be!

Date:

Astronomy

May. 18, 2013 Rise Set
Actual Time 6:22 AM EDT 9:01 PM EDT
Civil Twilight 5:50 AM EDT 9:33 PM EDT
Nautical Twilight 5:10 AM EDT 10:13 PM EDT
Astronomical Twilight 4:24 AM EDT 10:59 PM EDT
Moon 1:58 PM EDT (5/18) 2:20 AM EDT (5/18)
Length of Visible Light 15h 43m
Length of Day
14h 38m
First Quarter, 55% of the Moon is Illuminated
May 18
First Quarter
May 25
Full
May 31
Last Quarter
Jun 8
New
Jun 16
First Quarter

Hourly Weather History & Observations

Time (EDT) Temp. Dew Point Humidity Pressure Visibility Wind Dir Wind Speed Gust Speed Precip Events Conditions
12:54 AM 66.0 °F 42.1 °F 42% 30.06 in 10.0 mi ESE 11.5 mph - N/A   Clear
1:54 AM 64.0 °F 41.0 °F 43% 30.06 in 10.0 mi ESE 11.5 mph - N/A   Clear
2:54 AM 62.1 °F 39.9 °F 44% 30.06 in 10.0 mi ESE 11.5 mph - N/A   Overcast
3:54 AM 61.0 °F 39.0 °F 44% 30.06 in 10.0 mi ESE 12.7 mph - N/A   Overcast
4:54 AM 61.0 °F 37.0 °F 41% 30.06 in 10.0 mi ESE 12.7 mph - N/A   Overcast
5:06 AM 60.8 °F 37.4 °F 42% 30.08 in 10.0 mi ESE 11.5 mph - N/A   Overcast
5:54 AM 61.0 °F 37.9 °F 42% 30.08 in 10.0 mi ESE 6.9 mph - N/A   Overcast
6:54 AM 61.0 °F 37.9 °F 42% 30.09 in 10.0 mi ESE 6.9 mph - N/A   Overcast
7:54 AM 61.0 °F 39.0 °F 44% 30.09 in 10.0 mi ESE 9.2 mph - N/A   Overcast
8:54 AM 60.1 °F 44.1 °F 55% 30.10 in 10.0 mi East 6.9 mph - N/A   Overcast
9:54 AM 62.1 °F 45.0 °F 53% 30.09 in 10.0 mi ESE 5.8 mph - N/A   Overcast
10:54 AM 66.0 °F 48.0 °F 52% 30.08 in 10.0 mi ESE 6.9 mph - N/A   Overcast
11:54 AM 72.0 °F 52.0 °F 49% 30.07 in 10.0 mi ESE 5.8 mph - N/A   Mostly Cloudy
12:54 PM 75.9 °F 55.0 °F 48% 30.06 in 10.0 mi SE 4.6 mph 16.1 mph N/A   Partly Cloudy
1:54 PM 79.0 °F 57.0 °F 47% 30.04 in 10.0 mi ESE 6.9 mph - N/A   Partly Cloudy
2:54 PM 78.8 °F 57.2 °F 47% 30.03 in 10.0 mi SE 8.1 mph - N/A   Mostly Cloudy
3:54 PM 79.0 °F 55.9 °F 45% 30.01 in 10.0 mi SSE 9.2 mph - N/A   Overcast
4:54 PM 78.1 °F 55.0 °F 45% 30.00 in 10.0 mi SSE 6.9 mph - N/A   Overcast
5:54 PM 78.8 °F 55.4 °F 44% 30.01 in 10.0 mi SSE 8.1 mph - N/A   Overcast
6:54 PM 79.0 °F 57.0 °F 47% 29.99 in 10.0 mi South 10.4 mph - N/A   Mostly Cloudy
7:54 PM 78.1 °F 57.0 °F 48% 29.98 in 10.0 mi South 6.9 mph - N/A   Scattered Clouds
8:54 PM 75.0 °F 57.0 °F 53% 29.99 in 10.0 mi SE 4.6 mph - N/A   Clear
9:54 PM 68.0 °F 57.0 °F 68% 29.99 in 10.0 mi East 3.5 mph - N/A   Partly Cloudy
10:54 PM 71.1 °F 57.9 °F 63% 30.01 in 10.0 mi ESE 3.5 mph - N/A   Overcast
11:54 PM 72.0 °F 57.0 °F 59% 30.00 in 10.0 mi SE 5.8 mph - N/A   Overcast